Location: Kott?ru
(16.6209°N, 80.6208°E)
Time: 17:06:06
(UTC+00:00)

Cosmos 1844 Rocket - Pass Details

Date: 18 September 2020
Orbit: 823 x 846 km, 71.0° (Epoch: 20 October)

Event Time Altitude Azimuth Distance (km) Brightness Sun altitude
Rises 14:25:17 0° 211° (SSW) 3,346 6.1 -26.7°
Reaches altitude 10° 14:27:48 10° 217° (SW) 2,413 5.4 -27.3°
Maximum altitude 14:33:02 44° 288° (WNW) 1,126 3.7 -28.5°
Drops below altitude 10° 14:38:18 10° 360° (N) 2,419 5.2 -29.7°
Sets 14:40:51 0° 7° (N) 3,355 5.9 -30.3°
